When you browse on this site, cookies collect data to enhance your experience and personalize the content and advertising you see.
Visit our Privacy Policy to learn more. By continuing to use the site, you agree to this use of cookies and data.
  • En España
  • Lista de países
  • Para 7 días
  • Temperatura del agua
  • El tiempo en el mapa
  • Informadores
  • user-avatar
    Iniciar sesión

    Tiempo cada hora Albany

    Hoy, 10 Abril, Viernes

    Tiempo Temperatura Precipitaciones Viento Presión Humedad
    00:00 +18°C° 0 mm 4 mps 761 mmHg 92%
    01:00 +18°C° 0 mm 4 mps 760 mmHg 91%
    02:00 +18°C° 0 mm 3 mps 760 mmHg 89%
    03:00 +18°C° 0 mm 3 mps 760 mmHg 88%
    04:00 +18°C° 0 mm 3 mps 761 mmHg 88%
    05:00 +18°C° 0 mm 2 mps 761 mmHg 88%
    06:00 +19°C° 0 mm 3 mps 761 mmHg 86%
    07:00 +19°C° 0 mm 3 mps 762 mmHg 84%
    08:00 +20°C° 0 mm 3 mps 762 mmHg 84%
    09:00 +20°C° 0 mm 3 mps 762 mmHg 79%
    10:00 +21°C° 0 mm 3 mps 761 mmHg 75%
    11:00 +22°C° 0 mm 3 mps 761 mmHg 71%
    12:00 +22°C° 0 mm 4 mps 761 mmHg 73%
    13:00 +21°C° 0 mm 5 mps 760 mmHg 75%
    14:00 +21°C° 0 mm 5 mps 760 mmHg 76%
    15:00 +20°C° 0 mm 5 mps 760 mmHg 77%
    16:00 +20°C° 0 mm 5 mps 761 mmHg 78%
    17:00 +19°C° 0 mm 5 mps 761 mmHg 79%
    18:00 +19°C° 0 mm 5 mps 761 mmHg 80%
    19:00 +19°C° 0 mm 5 mps 762 mmHg 81%
    20:00 +17°C° 0 mm 5 mps 762 mmHg 82%
    21:00 +17°C° 0 mm 5 mps 762 mmHg 82%
    22:00 +17°C° 0 mm 5 mps 762 mmHg 82%
    23:00 +17°C° 0 mm 5 mps 762 mmHg 83%

    Mañana, 11 Abril, Sábado

    Tiempo Temperatura Precipitaciones Viento Presión Humedad
    00:00 +17°C° 0 mm 5 mps 762 mmHg 83%
    01:00 +17°C° 0 mm 5 mps 761 mmHg 82%
    02:00 +17°C° 0 mm 5 mps 761 mmHg 82%
    03:00 +17°C° 0 mm 5 mps 761 mmHg 84%
    04:00 +16°C° 0 mm 5 mps 761 mmHg 85%
    05:00 +16°C° 0 mm 5 mps 761 mmHg 87%
    06:00 +17°C° 0 mm 5 mps 761 mmHg 85%
    07:00 +17°C° 0 mm 5 mps 761 mmHg 83%
    08:00 +19°C° 0 mm 5 mps 760 mmHg 81%
    09:00 +21°C° 0 mm 5 mps 760 mmHg 73%
    10:00 +23°C° 0 mm 6 mps 760 mmHg 65%
    11:00 +27°C° 0 mm 6 mps 759 mmHg 56%
    12:00 +28°C° 0 mm 5 mps 758 mmHg 51%
    13:00 +30°C° 0 mm 5 mps 757 mmHg 46%
    14:00 +33°C° 0 mm 5 mps 756 mmHg 41%
    15:00 +30°C° 0 mm 5 mps 756 mmHg 48%
    16:00 +28°C° 0 mm 5 mps 756 mmHg 55%
    17:00 +26°C° 0 mm 5 mps 756 mmHg 63%
    18:00 +25°C° 0 mm 5 mps 756 mmHg 65%
    19:00 +25°C° 0 mm 4 mps 756 mmHg 67%
    20:00 +23°C° 0 mm 4 mps 756 mmHg 70%
    21:00 +24°C° 0 mm 3 mps 756 mmHg 65%
    22:00 +24°C° 0 mm 3 mps 756 mmHg 60%
    23:00 +24°C° 0 mm 3 mps 756 mmHg 55%

    Pasado mañana, 12 Abril, Domingo

    Tiempo Temperatura Precipitaciones Viento Presión Humedad
    00:00 +24°C° 0 mm 3 mps 755 mmHg 55%
    01:00 +24°C° 0 mm 3 mps 755 mmHg 55%
    02:00 +22°C° 0 mm 3 mps 754 mmHg 54%
    03:00 +22°C° 0 mm 3 mps 754 mmHg 57%
    04:00 +21°C° 0 mm 3 mps 755 mmHg 60%
    05:00 +20°C° 0 mm 3 mps 755 mmHg 63%
    06:00 +21°C° 0 mm 4 mps 755 mmHg 69%
    07:00 +22°C° 0 mm 4 mps 756 mmHg 75%
    08:00 +22°C° 0 mm 4 mps 756 mmHg 81%
    09:00 +25°C° 0 mm 4 mps 756 mmHg 73%
    10:00 +26°C° 0 mm 5 mps 756 mmHg 65%
    11:00 +28°C° 0 mm 5 mps 756 mmHg 58%
    12:00 +28°C° 0 mm 6 mps 756 mmHg 55%
    13:00 +28°C° 0 mm 6 mps 755 mmHg 53%
    14:00 +28°C° 0 mm 7 mps 755 mmHg 51%
    15:00 +26°C° 0 mm 7 mps 755 mmHg 57%
    16:00 +23°C° 0 mm 7 mps 755 mmHg 63%
    17:00 +22°C° 0 mm 7 mps 755 mmHg 68%
    18:00 +21°C° 0 mm 6 mps 756 mmHg 72%
    19:00 +20°C° 0 mm 5 mps 756 mmHg 75%
    20:00 +19°C° 0 mm 5 mps 757 mmHg 78%
    21:00 +18°C° 0 mm 4 mps 757 mmHg 80%
    22:00 +18°C° 0 mm 4 mps 757 mmHg 82%
    23:00 +17°C° 0 mm 4 mps 758 mmHg 85%

    13 Abril, Lunes

    Tiempo Temperatura Precipitaciones Viento Presión Humedad
    00:00 +17°C° 0 mm 3 mps 757 mmHg 86%
    01:00 +16°C° 0 mm 3 mps 757 mmHg 88%
    02:00 +16°C° 0 mm 3 mps 757 mmHg 89%
    03:00 +16°C° 0.1 mm 3 mps 757 mmHg 90%
    04:00 +16°C° 0.1 mm 3 mps 757 mmHg 91%
    05:00 +16°C° 0.1 mm 3 mps 757 mmHg 92%
    06:00 +17°C° 0.1 mm 2 mps 757 mmHg 87%
    07:00 +18°C° 0.1 mm 2 mps 758 mmHg 83%
    08:00 +19°C° 0.1 mm 2 mps 758 mmHg 79%
    09:00 +20°C° 0 mm 2 mps 758 mmHg 70%
    10:00 +21°C° 0 mm 2 mps 758 mmHg 62%
    11:00 +24°C° 0 mm 2 mps 758 mmHg 53%
    12:00 +24°C° 0 mm 2 mps 757 mmHg 56%
    13:00 +22°C° 0 mm 3 mps 757 mmHg 58%
    14:00 +22°C° 0 mm 3 mps 757 mmHg 61%
    15:00 +21°C° 0.1 mm 3 mps 757 mmHg 65%
    16:00 +21°C° 0.1 mm 4 mps 757 mmHg 69%
    17:00 +20°C° 0.1 mm 4 mps 757 mmHg 74%
    18:00 +20°C° 0 mm 3 mps 758 mmHg 73%
    19:00 +19°C° 0 mm 3 mps 758 mmHg 73%
    20:00 +19°C° 0 mm 2 mps 759 mmHg 73%
    21:00 +19°C° 0 mm 2 mps 759 mmHg 73%
    22:00 +19°C° 0 mm 1 mps 759 mmHg 74%
    23:00 +19°C° 0 mm 1 mps 759 mmHg 75%

    14 Abril, Martes

    Tiempo Temperatura Precipitaciones Viento Presión Humedad
    00:00 +18°C° 0 mm 1 mps 759 mmHg 79%
    01:00 +18°C° 0 mm 1 mps 759 mmHg 82%
    02:00 +16°C° 0 mm 1 mps 759 mmHg 86%
    03:00 +16°C° 0.1 mm 1 mps 758 mmHg 87%
    04:00 +16°C° 0.1 mm 1 mps 758 mmHg 88%
    05:00 +15°C° 0.1 mm 1 mps 758 mmHg 90%
    06:00 +16°C° 0.1 mm 1 mps 758 mmHg 87%
    07:00 +16°C° 0.1 mm 1 mps 758 mmHg 85%
    08:00 +17°C° 0.1 mm 2 mps 759 mmHg 82%
    09:00 +18°C° 0.1 mm 2 mps 758 mmHg 75%
    10:00 +20°C° 0.1 mm 2 mps 758 mmHg 67%
    11:00 +21°C° 0.1 mm 2 mps 758 mmHg 60%
    12:00 +23°C° 0 mm 2 mps 757 mmHg 57%
    13:00 +22°C° 0 mm 3 mps 757 mmHg 55%
    14:00 +24°C° 0 mm 3 mps 756 mmHg 52%
    15:00 +22°C° 0 mm 4 mps 756 mmHg 59%
    16:00 +21°C° 0 mm 4 mps 756 mmHg 65%
    17:00 +19°C° 0 mm 4 mps 756 mmHg 72%
    18:00 +18°C° 0 mm 4 mps 756 mmHg 76%
    19:00 +17°C° 0 mm 3 mps 756 mmHg 81%
    20:00 +16°C° 0 mm 3 mps 757 mmHg 86%
    21:00 +14°C° 0 mm 3 mps 757 mmHg 87%
    22:00 +14°C° 0 mm 4 mps 757 mmHg 87%
    23:00 +13°C° 0 mm 4 mps 757 mmHg 88%

    15 Abril, Miércoles

    Tiempo Temperatura Precipitaciones Viento Presión Humedad
    00:00 +13°C° 0 mm 4 mps 757 mmHg 88%
    01:00 +13°C° 0 mm 4 mps 757 mmHg 87%
    02:00 +12°C° 0 mm 4 mps 756 mmHg 87%
    03:00 +12°C° 0 mm 4 mps 756 mmHg 87%
    04:00 +11°C° 0 mm 4 mps 756 mmHg 87%
    05:00 +11°C° 0 mm 4 mps 756 mmHg 87%
    06:00 +12°C° 0 mm 5 mps 756 mmHg 82%
    07:00 +13°C° 0 mm 5 mps 756 mmHg 77%
    08:00 +14°C° 0 mm 6 mps 756 mmHg 72%
    09:00 +16°C° 0 mm 6 mps 755 mmHg 64%
    10:00 +19°C° 0 mm 6 mps 755 mmHg 57%
    11:00 +22°C° 0 mm 6 mps 755 mmHg 49%
    12:00 +21°C° 0.6 mm 7 mps 754 mmHg 54%
    13:00 +21°C° 0.6 mm 8 mps 754 mmHg 60%
    14:00 +20°C° 0.6 mm 8 mps 754 mmHg 65%
    15:00 +18°C° 2 mm 8 mps 754 mmHg 71%
    16:00 +16°C° 2 mm 8 mps 755 mmHg 76%
    17:00 +14°C° 2 mm 7 mps 755 mmHg 81%
    18:00 +14°C° 0.1 mm 7 mps 756 mmHg 80%
    19:00 +14°C° 0.1 mm 6 mps 757 mmHg 79%
    20:00 +13°C° 0.1 mm 6 mps 758 mmHg 77%
    21:00 +13°C° 0.1 mm 6 mps 758 mmHg 78%
    22:00 +12°C° 0.1 mm 5 mps 758 mmHg 78%
    23:00 +12°C° 0.1 mm 5 mps 758 mmHg 79%
    Mostrar más